Simultaneous Nadir Overpasses (SNOs) Predictions

Prediction of SNOs between METOP-A and NPP Satellite Orbit:

Table of predicted SNOs for the next 14.0 days since TLE Epoch: 4/18/2016
Index Date (METOP-A) Time (METOP-A) Lat,Lon (METOP-A) SZA (METOP-A ) Date (NPP) Time (NPP) Lat,Lon (NPP) SZA (NPP ) Distance(km) Time Diff (sec)
1 05/01/2016 12:43:35 73.55, -17.56 58.26 05/01/2016 12:42:28 73.58, -20.27 58.41 85.33 67
2 05/01/2016 13:34:19 -73.45, 149.54 121.85 05/01/2016 13:33:10 -73.47, 147.30 121.72 71.08 69
3 05/01/2016 14:25:03 73.23, -43.62 57.94 05/01/2016 14:23:51 73.24, -44.86 58.01 39.81 72
4 05/01/2016 15:15:46 -73.18, 123.60 122.12 05/01/2016 15:14:34 -73.18, 122.58 122.06 32.74 72
5 05/01/2016 16:06:30 72.96, -69.55 57.67 05/01/2016 16:05:15 72.94, -69.59 57.67 2.50 75
6 05/01/2016 16:57:13 -72.91, 97.68 122.38 05/01/2016 16:55:59 -72.93, 97.74 122.35 2.98 74
7 05/01/2016 17:47:52 72.94, -94.93 57.63 05/01/2016 17:46:45 72.94, -94.97 57.65 1.51 67
8 05/01/2016 18:38:34 -72.94, 72.40 122.38 05/01/2016 18:37:29 -72.94, 72.36 122.37 1.64 65
9 05/01/2016 19:29:14 72.92,-120.31 57.59 05/01/2016 19:28:14 72.90,-120.25 57.58 3.08 60
10 05/01/2016 20:19:56 -72.92, 47.02 122.42 05/01/2016 20:18:59 -72.94, 46.97 122.39 2.45 57
11 05/01/2016 21:10:36 72.90,-145.70 57.56 05/01/2016 21:09:44 72.90,-145.64 57.57 2.04 52
12 05/01/2016 22:01:18 -72.90, 21.64 122.46 05/01/2016 22:00:28 -72.90, 21.70 122.46 2.14 50
13 05/01/2016 22:51:57 72.93,-170.97
